Home   Weather   Uppsala   Past weeks

Flag for Sweden Past Weather in Uppsala, Sweden — Yesterday and Last 2 Weeks

50 °F

Passing clouds.

Feels Like: 44 °F
Forecast: 40 / 49 °F
Wind: 16 mph from Southwest

Location: Stockholm / Arlanda

Current Time: Oct 28, 2016 at 12:48:22 AM

Latest Report: Oct 28, 2016 at 12:20 AM

Visibility: N/A

Pressure: 29.83 "Hg

Humidity: 82%

Dew Point: 45 °F

Location of UppsalaLocation

Past Weather in Uppsala — Graph


Uppsala Temperature Yesterday

Maximum temperature yesterday: 50 °F (at 1:50 PM)
Minimum temperature yesterday: 41 °F (at 12:20 AM)
Average temperature yesterday: 46 °F

High & Low Weather Summary for the Past Weeks

High50 °F (Oct 27, 1:50 PM)100% (Oct 19, 4:50 AM)30.60 "Hg (Oct 19, 4:50 AM)
Low34 °F (Oct 26, 6:20 AM)57% (Oct 20, 1:50 PM)29.86 "Hg (Oct 27, 10:20 PM)
Average42 °F83%30.34 "Hg
* Reported Oct 12 11:20 PM — Oct 27 11:20 PM, Uppsala, Weather by CustomWeather, © 2016

Note: Actual official high and low records may vary slightly from our data, if they occured in-between our weather recording intervals... More about our weather records


Uppsala Weather History for the Previous 24 Hours

Scroll right to see more
Time TempWeatherWind HumidityBarometerVisibility
11:20 PM
Thu, Oct 27
50 °FPassing clouds.20 mph76%29.86 "HgN/A
10:50 PM50 °FPartly cloudy.18 mph76%29.86 "HgN/A
10:20 PM50 °FPassing clouds.15 mph76%29.86 "HgN/A
9:50 PM48 °FClear.18 mph82%29.89 "Hg10 mi
9:20 PM48 °FPassing clouds.14 mph82%29.89 "HgN/A
8:50 PM48 °FPassing clouds.17 mph82%29.92 "HgN/A
8:20 PM50 °FPassing clouds.16 mph82%29.92 "HgN/A
7:50 PM48 °FPassing clouds.15 mph87%29.95 "HgN/A
7:20 PM48 °FClear.15 mph87%29.95 "Hg10 mi
6:50 PM48 °FClear.14 mph94%29.95 "Hg10 mi
6:20 PM48 °FClear.13 mph94%29.95 "Hg10 mi
5:50 PM48 °FClear.13 mph94%29.95 "Hg10 mi
5:20 PM50 °FClear.12 mph88%29.98 "Hg10 mi
4:50 PM50 °FSunny.12 mph88%29.98 "Hg10 mi
4:20 PM50 °FPassing clouds.13 mph88%29.98 "HgN/A
3:50 PM50 °FPassing clouds.15 mph82%29.98 "HgN/A
3:20 PM50 °FScattered clouds.13 mph88%29.98 "HgN/A
2:50 PM50 °FScattered clouds.13 mph88%30.01 "HgN/A
2:20 PM50 °FPartly sunny.15 mph88%30.01 "HgN/A
1:50 PM50 °FPartly sunny.14 mph88%30.01 "HgN/A
1:20 PM48 °FPartly sunny.12 mph94%30.01 "HgN/A
12:50 PM48 °FBroken clouds.12 mph94%30.01 "HgN/A
12:20 PM48 °FPartly sunny.12 mph94%30.01 "HgN/A
11:50 AM46 °FFog.12 mph100%30.01 "Hg5 mi
11:20 AM46 °FFog.10 mph100%30.01 "Hg5 mi
10:50 AM46 °FFog.10 mph100%30.01 "Hg4 mi
10:20 AM46 °FFog.10 mph93%30.01 "Hg4 mi
9:50 AM45 °FFog.10 mph100%30.01 "Hg4 mi
9:20 AM45 °FFog.10 mph100%30.01 "Hg3 mi
8:50 AM45 °FFog.12 mph100%30.01 "Hg4 mi
8:20 AM45 °FFog.10 mph93%30.01 "Hg4 mi
7:50 AM43 °FFog.12 mph100%30.01 "Hg4 mi
7:20 AM43 °FFog.12 mph100%30.01 "Hg5 mi
6:50 AM43 °FPassing clouds.12 mph100%30.01 "HgN/A
6:20 AM43 °FPassing clouds.12 mph100%30.01 "Hg6 mi
5:50 AM43 °FLight rain. Passing clouds.12 mph93%30.01 "Hg5 mi
5:20 AM43 °FPassing clouds.12 mph93%30.01 "HgN/A
4:50 AM43 °FLight rain. Passing clouds.10 mph93%30.04 "HgN/A
4:20 AM43 °FLight rain. Passing clouds.12 mph93%30.04 "HgN/A
3:50 AM41 °FLight rain. Passing clouds.10 mph100%30.04 "HgN/A
3:20 AM41 °FPassing clouds.12 mph100%30.04 "HgN/A
2:50 AM41 °FDrizzle. Low clouds.12 mph100%30.07 "Hg5 mi
2:20 AM41 °FDrizzle. Low clouds.10 mph100%30.07 "HgN/A
1:50 AM41 °FLight rain. Passing clouds.10 mph93%30.07 "HgN/A
1:20 AM41 °FLight rain. Mostly cloudy.10 mph93%30.07 "HgN/A
12:50 AM41 °FLight rain. Passing clouds.12 mph93%30.09 "HgN/A
12:20 AM41 °FPartly cloudy.12 mph93%30.09 "HgN/A
Weather by CustomWeather, © 2016

See weather overviewHow to use our weather pages